Weather History for Mesquite, TX

Change the Weather History Date:

Friday, March 22, 2013

  Actual Average (KDFW) Record (KDFW)
Temperature  
Mean Temperature 56 °F 59 °F  
Max Temperature 65 °F 70 °F 93 °F (1995)
Min Temperature 46 °F 49 °F 26 °F (1914)
Degree Days  
Heating Degree Days 10 7  
Month to date heating degree days 207  
Since 1 July heating degree days 2139  
Cooling Degree Days 0 1  
Month to date cooling degree days 20  
Year to date cooling degree days 27  
Growing Degree Days 6 (Base 50)    
Moisture  
Dew Point 48 °F    
Average Humidity 82    
Maximum Humidity 92    
Minimum Humidity 70    
Precipitation  
Precipitation 0.00 in 0.12 in 0.99 in (1993)
Month to date precipitation 2.51  
Year to date precipitation 7.30  
Snow  
Snow 0.00 in 0.00 in T in (1968)
Month to date snowfall 0.1  
Since 1 July snowfall 1.1  
Snow Depth -    
Sea Level Pressure  
Sea Level Pressure 29.74 in    
Wind  
Wind Speed 11 mph (NNE)    
Max Wind Speed 20 mph    
Max Gust Speed 25 mph    
Visibility 8 miles    
Events      
T = Trace of Precipitation, MM = Missing Value Source: NWS Daily Summary

Daily Weather History Graph

Daily Weather History Graph

Search for Another Location

Airport:

Trip Planner

Search our weather history database for the weather conditions in past years. The results will help you decide how hot, cold, wet, or windy it might be!

Date:

Astronomy

Mar. 22, 2013 Rise Set
Actual Time 7:26 AM CDT 7:39 PM CDT
Civil Twilight 7:02 AM CDT 8:03 PM CDT
Nautical Twilight 6:33 AM CDT 8:32 PM CDT
Astronomical Twilight 6:04 AM CDT 9:01 PM CDT
Moon 3:20 PM CDT (3/22) 4:14 AM CDT (3/22)
Length of Visible Light 13h 01m
Length of Day
12h 12m
Waxing Gibbous, 77% of the Moon is Illuminated
Mar 22
Waxing Gibbous
Mar 27
Full
Apr 2
Last Quarter
Apr 10
New
Apr 18
First Quarter

Hourly Weather History & Observations

Time (CDT) Temp. Dew Point Humidity Pressure Visibility Wind Dir Wind Speed Gust Speed Precip Events Conditions
12:15 AM 64.9 °F 55.4 °F 71% 29.63 in 10.0 mi SSE 12.7 mph - N/A   Overcast
12:35 AM 64.8 °F 55.8 °F 73% 29.63 in 10.0 mi SSE 13.8 mph 17.3 mph N/A   Overcast
12:55 AM 64.6 °F 55.9 °F 74% 29.62 in 10.0 mi SSE 11.5 mph - N/A   Overcast
1:15 AM 64.6 °F 56.3 °F 74% 29.61 in 10.0 mi SSE 12.7 mph 19.6 mph N/A   Overcast
1:35 AM 64.8 °F 56.8 °F 75% 29.62 in 10.0 mi SSE 12.7 mph 18.4 mph N/A   Overcast
1:55 AM 64.9 °F 57.2 °F 76% 29.61 in 10.0 mi SSE 11.5 mph 20.7 mph N/A   Overcast
2:15 AM 64.8 °F 57.4 °F 77% 29.62 in 10.0 mi SSE 10.4 mph 16.1 mph N/A   Overcast
2:35 AM 64.8 °F 57.6 °F 77% 29.61 in 10.0 mi SSE 10.4 mph - N/A   Overcast
2:55 AM 64.8 °F 57.7 °F 78% 29.61 in 10.0 mi SSE 9.2 mph - N/A   Overcast
3:15 AM 64.6 °F 57.9 °F 79% 29.61 in 10.0 mi SSE 11.5 mph 16.1 mph N/A   Overcast
3:35 AM 64.6 °F 58.1 °F 79% 29.61 in 10.0 mi SSE 9.2 mph - N/A   Overcast
3:55 AM 64.8 °F 58.3 °F 79% 29.61 in 10.0 mi SSE 11.5 mph - N/A   Overcast
4:15 AM 65.1 °F 58.8 °F 80% 29.60 in 10.0 mi South 6.9 mph - N/A   Overcast
4:35 AM 65.3 °F 59.0 °F 80% 29.61 in 10.0 mi South 8.1 mph - N/A   Overcast
4:55 AM 65.3 °F 59.0 °F 80% 29.59 in 10.0 mi South 9.2 mph - N/A   Overcast
5:15 AM 65.3 °F 59.2 °F 81% 29.59 in 10.0 mi SSE 12.7 mph - N/A   Overcast
5:35 AM 65.3 °F 59.2 °F 81% 29.61 in 10.0 mi SSE 5.8 mph - N/A   Overcast
5:55 AM 65.3 °F 59.2 °F 81% 29.62 in 10.0 mi South 4.6 mph - N/A   Overcast
6:15 AM 65.3 °F 59.4 °F 81% 29.63 in 10.0 mi South 6.9 mph - N/A   Overcast
6:55 AM 65.3 °F 59.7 °F 82% 29.64 in 10.0 mi South 4.6 mph - N/A   Overcast
7:15 AM 65.3 °F 59.9 °F 83% 29.65 in 10.0 mi SSE 3.5 mph - N/A   Overcast
7:35 AM 65.3 °F 59.5 °F 82% 29.66 in 10.0 mi SSE 4.6 mph - N/A   Overcast
7:55 AM 61.5 °F 52.3 °F 72% 29.68 in 10.0 mi North 19.6 mph 25.3 mph N/A   Overcast
8:15 AM 52.9 °F 43.2 °F 70% 29.71 in 10.0 mi North 16.1 mph 20.7 mph N/A   Overcast
8:35 AM 50.7 °F 43.0 °F 75% 29.72 in 10.0 mi NNE 13.8 mph 20.7 mph N/A   Overcast
8:55 AM 50.0 °F 43.5 °F 78% 29.73 in 10.0 mi NNE 15.0 mph - N/A   Overcast
9:15 AM 48.6 °F 42.8 °F 80% 29.75 in 7.0 mi NNE 13.8 mph 20.7 mph N/A   Overcast
9:35 AM 47.7 °F 42.8 °F 83% 29.76 in 7.0 mi NNE 11.5 mph - N/A   Overcast
9:55 AM 48.2 °F 42.8 °F 82% 29.76 in 7.0 mi NNE 10.4 mph 19.6 mph N/A   Overcast
10:15 AM 47.8 °F 42.8 °F 83% 29.76 in 7.0 mi NNE 11.5 mph - N/A   Overcast
10:35 AM 48.4 °F 43.2 °F 82% 29.77 in 7.0 mi North 10.4 mph 17.3 mph N/A   Overcast
10:55 AM 48.9 °F 43.5 °F 82% 29.77 in 7.0 mi NNE 9.2 mph - N/A   Overcast
11:15 AM 49.1 °F 43.5 °F 81% 29.78 in 7.0 mi North 9.2 mph - N/A   Overcast
11:35 AM 49.5 °F 43.7 °F 81% 29.78 in 7.0 mi North 12.7 mph - N/A   Overcast
11:55 AM 49.8 °F 43.7 °F 79% 29.78 in 7.0 mi North 11.5 mph 16.1 mph N/A   Overcast
12:15 PM 50.2 °F 44.2 °F 80% 29.78 in 7.0 mi North 13.8 mph - N/A   Overcast
12:35 PM 49.6 °F 44.2 °F 82% 29.78 in 7.0 mi North 11.5 mph 19.6 mph N/A   Overcast
12:55 PM 49.6 °F 44.2 °F 82% 29.79 in 7.0 mi NNW 13.8 mph - N/A   Overcast
1:15 PM 49.3 °F 44.1 °F 82% 29.79 in 5.0 mi North 11.5 mph - N/A   Overcast
1:35 PM 48.7 °F 43.9 °F 83% 29.79 in 5.0 mi NNW 12.7 mph - N/A   Overcast
1:55 PM 49.1 °F 44.2 °F 83% 29.79 in 5.0 mi North 11.5 mph - N/A   Overcast
2:15 PM 48.9 °F 44.2 °F 84% 29.78 in 5.0 mi NW 13.8 mph - N/A   Overcast
2:35 PM 48.6 °F 43.9 °F 84% 29.78 in 5.0 mi NW 13.8 mph - N/A   Overcast
2:55 PM 48.4 °F 43.9 °F 84% 29.78 in 5.0 mi NNW 12.7 mph - N/A   Overcast
3:15 PM 49.1 °F 44.6 °F 84% 29.77 in 5.0 mi North 12.7 mph 18.4 mph N/A   Overcast
3:35 PM 48.6 °F 44.2 °F 85% 29.78 in 5.0 mi North 11.5 mph - N/A   Overcast
3:55 PM 49.1 °F 44.6 °F 84% 29.77 in 7.0 mi North 15.0 mph - N/A   Overcast
4:15 PM 49.5 °F 45.0 °F 84% 29.77 in 7.0 mi North 12.7 mph 18.4 mph N/A   Overcast
4:35 PM 49.3 °F 44.8 °F 84% 29.78 in 7.0 mi North 10.4 mph 17.3 mph N/A   Overcast
4:55 PM 49.1 °F 44.8 °F 85% 29.78 in 7.0 mi North 10.4 mph - N/A   Overcast
5:15 PM 48.7 °F 44.6 °F 86% 29.79 in 10.0 mi North 10.4 mph - N/A   Overcast
5:35 PM 49.1 °F 44.4 °F 84% 29.80 in 10.0 mi NNW 11.5 mph - N/A   Overcast
5:55 PM 48.2 °F 43.7 °F 84% 29.80 in 10.0 mi NNW 10.4 mph - N/A   Overcast
6:15 PM 48.2 °F 43.9 °F 85% 29.81 in 10.0 mi NNW 10.4 mph - N/A   Overcast
6:35 PM 48.2 °F 44.2 °F 86% 29.80 in 10.0 mi NNW 9.2 mph 17.3 mph N/A   Overcast
6:55 PM 47.7 °F 43.7 °F 86% 29.81 in 7.0 mi NNW 8.1 mph - N/A   Overcast
7:15 PM 47.5 °F 43.9 °F 87% 29.81 in 7.0 mi North 9.2 mph - N/A   Overcast
7:35 PM 47.3 °F 43.7 °F 87% 29.82 in 7.0 mi NNW 9.2 mph - N/A   Overcast
7:55 PM 46.8 °F 43.7 °F 89% 29.82 in 5.0 mi NNW 6.9 mph - N/A   Overcast
8:15 PM 46.6 °F 43.9 °F 90% 29.82 in 4.0 mi NNW 5.8 mph - N/A   Overcast
8:35 PM 46.8 °F 44.4 °F 92% 29.82 in 5.0 mi NNE 8.1 mph - N/A   Overcast
8:55 PM 47.1 °F 44.1 °F 89% 29.82 in 7.0 mi North 6.9 mph - N/A   Overcast
9:15 PM 46.8 °F 43.9 °F 90% 29.83 in 5.0 mi NNE 4.6 mph - N/A   Overcast
9:35 PM 46.8 °F 44.1 °F 90% 29.83 in 7.0 mi NNE 4.6 mph - N/A   Overcast
9:55 PM 46.9 °F 44.1 °F 90% 29.84 in 5.0 mi NNE 4.6 mph - N/A   Overcast
10:15 PM 47.1 °F 44.2 °F 90% 29.85 in 7.0 mi North 8.1 mph - N/A   Overcast
10:35 PM 47.3 °F 44.1 °F 88% 29.86 in 10.0 mi North 5.8 mph - N/A   Overcast
10:55 PM 47.1 °F 44.1 °F 89% 29.86 in 7.0 mi North 8.1 mph - N/A   Overcast
11:15 PM 46.8 °F 44.2 °F 91% 29.86 in 7.0 mi North 8.1 mph - N/A   Overcast
11:35 PM 47.3 °F 44.2 °F 89% 29.85 in 7.0 mi North 8.1 mph - N/A   Overcast
11:55 PM 46.8 °F 43.9 °F 90% 29.85 in 7.0 mi NE 4.6 mph - N/A   Overcast